| time (UTC) | temp F | wind direction | speed MPH | gust MPH | rain 1hr in | rain 24hr in | rain mn in | humidity % | barometer mb |
| 20260509103048 | 24 | 0 | 0.0 | 0.0 | 0.00 | 0.00 | 0.00 | 88 | 1012.9 |
| 20260509101608 | 23 | 0 | 0.0 | 0.0 | 0.00 | 0.00 | 0.00 | 88 | 1012.9 |
| 20260509100042 | 23 | 0 | 0.0 | 0.0 | 0.00 | 0.00 | 0.00 | 89 | 1012.7 |
| 20260509094539 | 23 | 0 | 0.0 | 0.0 | 0.00 | 0.00 | 0.00 | 89 | 1012.4 |
| 20260509093043 | 23 | 0 | 0.0 | 0.0 | 0.00 | 0.00 | 0.00 | 89 | 1012.2 |
| 20260509091542 | 23 | 0 | 0.0 | 0.0 | 0.00 | 0.00 | 0.00 | 89 | 1012.1 |
| 20260509090041 | 23 | 0 | 0.0 | 0.0 | 0.00 | 0.00 | 0.00 | 89 | 1012.2 |
| 20260509084538 | 24 | 0 | 0.0 | 0.0 | 0.00 | 0.00 | 0.00 | 89 | 1012.1 |
| 20260509083042 | 24 | 0 | 0.0 | 0.0 | 0.00 | 0.00 | 0.00 | 89 | 1012.1 |
| 20260509081543 | 24 | 0 | 0.0 | 0.0 | 0.00 | 0.00 | 0.00 | 89 | 1012.2 |
| 20260509080038 | 24 | 0 | 0.0 | 0.0 | 0.00 | 0.00 | 0.00 | 89 | 1012.3 |
| 20260509074544 | 24 | 0 | 0.0 | 0.0 | 0.00 | 0.00 | 0.00 | 89 | 1012.3 |
| 20260509073054 | 25 | 0 | 0.0 | 0.0 | 0.00 | 0.00 | 0.00 | 89 | 1012.3 |
| 20260509071547 | 25 | 0 | 0.0 | 0.0 | 0.00 | 0.00 | 0.00 | 89 | 1012.2 |
| 20260509070045 | 25 | 0 | 0.0 | 0.0 | 0.00 | 0.00 | 0.00 | 89 | 1012.2 |
| 20260509064546 | 25 | 0 | 0.0 | 0.0 | 0.00 | 0.00 | 0.00 | 89 | 1012.2 |
| 20260509063038 | 26 | 0 | 0.0 | 0.0 | 0.00 | 0.00 | 0.00 | 89 | 1012.3 |
| 20260509061536 | 26 | 0 | 0.0 | 0.0 | 0.00 | 0.00 | 0.00 | 89 | 1012.2 |
| 20260509060039 | 26 | 0 | 0.0 | 0.0 | 0.00 | 0.00 | 0.00 | 89 | 1012.1 |
| 20260509054556 | 26 | 0 | 0.0 | 0.0 | 0.00 | 0.00 | 0.00 | 89 | 1011.9 |
| 20260509053041 | 27 | 0 | 0.0 | 0.0 | 0.00 | 0.00 | 0.00 | 89 | 1012.0 |
| 20260509051541 | 27 | 0 | 0.0 | 0.0 | 0.00 | 0.00 | 0.00 | 89 | 1011.9 |
| 20260509050039 | 27 | 0 | 0.0 | 2.0 | 0.00 | 0.00 | 0.00 | 89 | 1011.9 |
| 20260509044536 | 28 | 0 | 0.0 | 0.0 | 0.00 | 0.00 | 0.00 | 88 | 1011.9 |
| 20260509043045 | 28 | 0 | 0.0 | 0.0 | 0.00 | 0.00 | 0.00 | 88 | 1011.7 |
| 20260509041608 | 28 | 0 | 0.0 | 0.0 | 0.00 | 0.00 | 0.00 | 88 | 1011.7 |
| 20260509040041 | 29 | 0 | 0.0 | 0.0 | 0.00 | 0.00 | 0.00 | 88 | 1011.7 |
| 20260509034539 | 29 | 0 | 0.0 | 0.0 | 0.00 | 0.00 | 0.00 | 88 | 1011.5 |
| 20260509033044 | 29 | 0 | 0.0 | 0.0 | 0.00 | 0.00 | 0.00 | 87 | 1011.4 |
| 20260509031544 | 30 | 0 | 0.0 | 0.0 | 0.00 | 0.00 | 0.00 | 86 | 1011.3 |
| 20260509030040 | 31 | 0 | 0.0 | 0.0 | 0.00 | 0.00 | 0.00 | 85 | 1011.1 |
| 20260509024540 | 32 | 0 | 0.0 | 0.0 | 0.00 | 0.00 | 0.00 | 84 | 1011.1 |
| 20260509023046 | 33 | 0 | 0.0 | 0.0 | 0.00 | 0.00 | 0.00 | 82 | 1011.1 |
| 20260509021538 | 33 | 0 | 0.0 | 0.0 | 0.00 | 0.00 | 0.00 | 83 | 1011.0 |
| 20260509020045 | 34 | 0 | 0.0 | 0.0 | 0.00 | 0.00 | 0.00 | 82 | 1010.9 |
| 20260509014542 | 34 | 0 | 0.0 | 0.0 | 0.00 | 0.00 | 0.00 | 80 | 1010.8 |
| 20260509013043 | 34 | 0 | 0.0 | 0.0 | 0.00 | 0.00 | 0.00 | 80 | 1010.7 |
| 20260509011541 | 36 | 0 | 0.0 | 0.0 | 0.00 | 0.00 | 0.00 | 76 | 1010.6 |
| 20260509010041 | 37 | 0 | 0.0 | 0.0 | 0.00 | 0.00 | 0.00 | 75 | 1010.4 |
| 20260509004538 | 38 | 0 | 0.0 | 0.0 | 0.00 | 0.00 | 0.00 | 74 | 1010.0 |
| 20260509003037 | 40 | 0 | 0.0 | 0.0 | 0.00 | 0.00 | 0.00 | 71 | 1009.8 |
| 20260509001542 | 41 | 0 | 0.0 | 0.0 | 0.00 | 0.00 | 0.00 | 66 | 1009.6 |
| 20260509000041 | 42 | 0 | 0.0 | 0.0 | 0.00 | 0.00 | 0.00 | 62 | 1009.5 |
| 20260508234541 | 44 | 0 | 0.0 | 3.0 | 0.00 | 0.00 | 0.00 | 55 | 1009.5 |
| 20260508233039 | 45 | 0 | 0.0 | 2.0 | 0.00 | 0.00 | 0.00 | 50 | 1009.3 |
| 20260508231537 | 45 | 0 | 0.0 | 7.0 | 0.00 | 0.00 | 0.00 | 48 | 1009.3 |
| 20260508230041 | 46 | 269 | 0.0 | 8.0 | 0.00 | 0.00 | 0.00 | 46 | 1009.3 |
| 20260508224535 | 46 | 0 | 1.0 | 9.0 | 0.00 | 0.00 | 0.00 | 49 | 1009.3 |
| 20260508223039 | 46 | 222 | 1.0 | 8.0 | 0.00 | 0.00 | 0.00 | 48 | 1009.2 |
| 20260508221539 | 46 | 0 | 2.0 | 9.0 | 0.00 | 0.00 | 0.00 | 47 | 1009.2 |
| 20260508220041 | 47 | 252 | 4.0 | 9.0 | 0.00 | 0.00 | 0.00 | 45 | 1009.3 |
| 20260508214537 | 47 | 74 | 1.0 | 12.0 | 0.00 | 0.00 | 0.00 | 47 | 1009.0 |
| 20260508213044 | 47 | 281 | 2.0 | 11.0 | 0.00 | 0.00 | 0.00 | 46 | 1009.0 |
| 20260508211541 | 47 | 302 | 2.0 | 8.0 | 0.00 | 0.00 | 0.00 | 47 | 1008.9 |
| 20260508210040 | 48 | 227 | 4.0 | 11.0 | 0.00 | 0.00 | 0.00 | 46 | 1008.9 |
| 20260508204540 | 48 | 241 | 3.0 | 12.0 | 0.00 | 0.00 | 0.00 | 45 | 1008.7 |
| 20260508203040 | 48 | 267 | 4.0 | 12.0 | 0.00 | 0.00 | 0.00 | 47 | 1008.8 |
| 20260508201538 | 49 | 283 | 3.0 | 12.0 | 0.00 | 0.00 | 0.00 | 45 | 1008.6 |
| 20260508200100 | 48 | 124 | 7.0 | 13.0 | 0.00 | 0.00 | 0.00 | 44 | 1008.6 |
| 20260508194542 | 47 | 256 | 5.0 | 15.0 | 0.00 | 0.00 | 0.00 | 47 | 1008.7 |
| 20260508193046 | 47 | 257 | 4.0 | 14.0 | 0.00 | 0.00 | 0.00 | 47 | 1008.8 |
| 20260508191539 | 46 | 265 | 3.0 | 13.0 | 0.00 | 0.00 | 0.00 | 47 | 1008.7 |
| 20260508190036 | 45 | 271 | 6.0 | 14.0 | 0.00 | 0.00 | 0.00 | 47 | 1008.7 |
| 20260508184542 | 45 | 258 | 4.0 | 14.0 | 0.00 | 0.00 | 0.00 | 47 | 1008.6 |
| 20260508183047 | 45 | 296 | 6.0 | 14.0 | 0.00 | 0.00 | 0.00 | 48 | 1008.6 |
| 20260508181549 | 46 | 198 | 4.0 | 12.0 | 0.00 | 0.00 | 0.00 | 49 | 1008.6 |
| 20260508180038 | 45 | 270 | 3.0 | 14.0 | 0.00 | 0.00 | 0.00 | 50 | 1008.5 |
| 20260508174537 | 45 | 248 | 5.0 | 14.0 | 0.00 | 0.00 | 0.00 | 51 | 1008.4 |
| 20260508173037 | 45 | 325 | 4.0 | 13.0 | 0.00 | 0.00 | 0.00 | 53 | 1008.4 |
| 20260508171543 | 46 | 179 | 6.0 | 12.0 | 0.00 | 0.00 | 0.00 | 49 | 1008.2 |
| 20260508170053 | 46 | 248 | 3.0 | 11.0 | 0.00 | 0.00 | 0.00 | 52 | 1008.1 |
| 20260508164546 | 47 | 273 | 7.0 | 15.0 | 0.00 | 0.00 | 0.00 | 50 | 1008.0 |
| 20260508163037 | 47 | 202 | 4.0 | 14.0 | 0.00 | 0.00 | 0.00 | 58 | 1008.1 |
| 20260508161536 | 45 | 268 | 6.0 | 12.0 | 0.00 | 0.00 | 0.00 | 57 | 1008.2 |
| 20260508160043 | 45 | 227 | 5.0 | 12.0 | 0.00 | 0.00 | 0.00 | 60 | 1008.1 |
| 20260508154603 | 43 | 250 | 4.0 | 12.0 | 0.00 | 0.00 | 0.00 | 64 | 1008.4 |
| 20260508153040 | 43 | 302 | 4.0 | 12.0 | 0.00 | 0.00 | 0.00 | 65 | 1008.4 |
| 20260508151540 | 43 | 242 | 6.0 | 14.0 | 0.00 | 0.00 | 0.00 | 64 | 1008.3 |
| 20260508150040 | 43 | 274 | 5.0 | 15.0 | 0.00 | 0.00 | 0.00 | 65 | 1008.4 |
| 20260508144542 | 43 | 234 | 5.0 | 12.0 | 0.00 | 0.00 | 0.00 | 64 | 1008.6 |
| 20260508143042 | 43 | 292 | 3.0 | 13.0 | 0.00 | 0.00 | 0.00 | 64 | 1008.3 |
| 20260508141543 | 43 | 238 | 6.0 | 13.0 | 0.00 | 0.00 | 0.00 | 66 | 1008.4 |
| 20260508140042 | 42 | 279 | 8.0 | 12.0 | 0.00 | 0.00 | 0.00 | 66 | 1008.3 |
| 20260508134555 | 42 | 290 | 2.0 | 10.0 | 0.00 | 0.00 | 0.00 | 70 | 1008.3 |
| 20260508133049 | 41 | 272 | 4.0 | 11.0 | 0.00 | 0.00 | 0.00 | 70 | 1008.5 |
| 20260508131539 | 41 | 227 | 4.0 | 9.0 | 0.00 | 0.00 | 0.00 | 71 | 1008.3 |
| 20260508130042 | 41 | 275 | 3.0 | 13.0 | 0.00 | 0.00 | 0.00 | 73 | 1008.3 |
| 20260508124539 | 41 | 248 | 4.0 | 14.0 | 0.00 | 0.00 | 0.00 | 77 | 1008.1 |
| 20260508123047 | 38 | 104 | 0.0 | 4.0 | 0.00 | 0.00 | 0.00 | 87 | 1008.1 |
| 20260508121538 | 36 | 149 | 1.0 | 3.0 | 0.00 | 0.00 | 0.00 | 88 | 1008.1 |
| 20260508120043 | 35 | 0 | 0.0 | 2.0 | 0.00 | 0.00 | 0.00 | 89 | 1008.0 |
| 20260508114542 | 34 | 0 | 0.0 | 1.0 | 0.00 | 0.00 | 0.00 | 88 | 1008.0 |
| 20260508113040 | 33 | 0 | 0.0 | 0.0 | 0.00 | 0.00 | 0.00 | 85 | 1007.8 |
| 20260508111540 | 32 | 0 | 0.0 | 0.0 | 0.00 | 0.00 | 0.00 | 84 | 1007.9 |
| 20260508110039 | 31 | 0 | 0.0 | 0.0 | 0.00 | 0.00 | 0.00 | 85 | 1007.7 |
| 20260508104536 | 29 | 0 | 0.0 | 0.0 | 0.00 | 0.00 | 0.00 | 86 | 1007.6 |